Regional Weather Roundup
Issued by NWS

Home | Current Version | Previous Version | Text Only | Print | Product List | Glossary On
Versions: 1 2 3 4 5 6 7 8 9 10 11 12 13 14 15 16 17 18 19 20 21 22 23 24 25 26 27 28 29 30 31 32 33 34 35 36 37 38 39 40 41 42 43 44 45 46 47 48 49 50
000
ASPQ40 PGUM 011712
RWRPQ
WEATHER ROUNDUP FOR THE MARIANAS AND MICRONESIA
NATIONAL WEATHER SERVICE TIYAN GU
300 AM CHST THU MAR 02 2017

GUZ001>004-011800-
MARIANA ISLANDS-

CITY           SKY/WX    TMP DP  RH WIND       PRES   REMARKS
GUAM AIRPORT   PTCLDY    79  75  89 E12       29.84F
ANDERSEN AFB   MOCLDY    77  72  83 E14       29.85F
ROTA AIRPORT   NOT AVBL
TINIAN AP      NOT AVBL
SAIPAN AP      MOCLDY    75  72  88 E10       29.86F

$$

PMZ161-011800-
REPUBLIC OF PALAU-

CITY           SKY/WX    TMP DP  RH WIND       PRES   REMARKS
KOROR AP       CLOUDY    79  75  89 NE9       29.73F
KOROR WSO      CLOUDY    79  75  89 E3        29.74F

$$

PMZ171>174-011800-
FEDERATED STATES OF MICRONESIA-

CITY           SKY/WX    TMP DP  RH WIND       PRES   REMARKS
YAP AIRPORT    MOCLDY    81  75  83 NE9       29.74F
CHUUK AP       CLOUDY    82  72  69 E12       29.73F
POHNPEI AP     CLOUDY    81  75  83 E12       29.73F
POHNPEI WSO    CLOUDY    82  73  74 NE8       29.77F
KOSRAE AP      NOT AVBL

$$

PMZ181-011800-
REPUBLIC OF THE MARSHALL ISLANDS-

CITY           SKY/WX    TMP DP  RH WIND       PRES   REMARKS
KWAJALEIN AP   MOCLDY    81  72  74 NE20      29.74F
MAJURO AP      NOT AVBL
MAJURO WSO     MOCLDY    82  73  74 NE14      29.68S

$$




USA.gov is the U.S. government's official web portal to all federal, state and local government web resources and services.